Tracking 29933 objects as of 2-Dec-2024
HD Live streaming from Space Station
objects crossing your sky now

STARLINK-31378

Track STARLINK-31378 now!
10-day predictions
STARLINK-31378 is classified as:


NORAD ID: 58932
Int'l Code: 2024-027B
Perigee: 481.7 km
Apogee: 483.0 km
Inclination: 53.2 °
Period: 94.1 minutes
Semi major axis: 6853 km
RCS: Unknown
Launch date: February 10, 2024
Source: United States (US)
Launch site: AIR FORCE WESTERN TEST RANGE (AFWTR)
Your satellite tracking list
Your tracking list is empty




NASA's NSSDC Master Catalog

Two Line Element Set (TLE):
1 58932U 24027B   24337.15801884  .00000037  00000-0  13374-4 0  9998
2 58932  53.1603 297.9694 0000938 119.5926 240.5168 15.30198514 46357
Source of the keplerian elements: AFSPC